Location: Iesi
(43.5167°N, 13.2333°E)
Time: 01:26:06
(UTC+00:00)

Cosmos 1570 Rocket - Pass Details

Date: 08 August 2020
Orbit: 762 x 789 km, 74.1° (Epoch: 19 September)

Event Time Altitude Azimuth Distance (km) Brightness Sun altitude
Rises 21:45:48 0° 340° (NNW) 3,269 8.6 -27.4°
Reaches altitude 10° 21:48:12 10° 341° (NNW) 2,341 7.5 -27.6°
Enters shadow 21:53:13 78° 8° (N) 805 4.0 -28.0°
